Location: Unspecified
(43.8044°N, 11.0278°E)
Time: 21:19:28
(UTC+01:00)

Cosmos 2058 - Visible Passes

Search period start: 22 January 2017 00:00
Search period end: 01 February 2017 00:00
Orbit: 563 x 587 km, 82.5° (Epoch: 21 January)

Date Brightness Start Highest point End Pass type
(mag) Time Alt. Az. Time Alt. Az. Time Alt. Az.
22 Jan 3.8 05:08:16 46° ENE 05:08:16 46° ENE 05:12:15 10° SSE visible
22 Jan 4.6 06:44:34 14° W 06:44:47 14° W 06:47:01 10° WSW visible
22 Jan 4.9 19:06:57 10° SW 19:10:31 28° WNW 19:14:07 10° NNW visible
23 Jan 3.8 05:12:55 43° SE 05:12:55 43° SE 05:15:52 10° SSE visible
23 Jan 5.4 19:10:51 10° SW 19:14:04 22° WNW 19:17:19 10° NNW visible
24 Jan 4.6 05:17:38 25° S 05:17:38 25° S 05:19:24 10° S visible
24 Jan 5.7 19:14:54 10° WSW 19:17:39 17° WNW 19:20:23 10° NNW visible
25 Jan 5.3 05:22:23 13° S 05:22:23 13° S 05:22:50 10° S visible
25 Jan 3.0 17:39:58 10° S 17:43:56 53° E 17:47:56 10° NNE visible
25 Jan 5.9 19:19:15 10° W 19:21:14 13° WNW 19:23:14 10° NW visible
26 Jan 2.8 17:43:18 10° S 17:47:22 72° E 17:51:28 10° NNE visible
27 Jan 3.0 17:46:44 10° S 17:50:50 84° W 17:54:57 10° N visible
28 Jan 3.5 17:50:15 10° SSW 17:54:18 61° W 17:58:23 10° N visible
29 Jan 4.1 17:53:52 10° SSW 17:57:48 45° WNW 18:01:46 10° N visible
30 Jan 4.7 17:57:34 10° SW 18:01:19 34° WNW 18:05:05 10° N visible
31 Jan 5.2 18:01:24 10° SW 18:04:51 26° WNW 18:08:20 10° NNW visible
